Previsão horária em Jõhvi

Hoje, 23 Junho, Quarta-feira

Tempo Temperatura Precipitação Vento Pressão Humidade
00:00 +20°C° 0.2 mm 2 m/s 754 mmHg 89%
01:00 +20°C° 0.2 mm 2 m/s 754 mmHg 92%
02:00 +20°C° 0 mm 2 m/s 755 mmHg 94%
03:00 +21°C° 0 mm 2 m/s 754 mmHg 94%
04:00 +21°C° 0 mm 2 m/s 754 mmHg 93%
05:00 +23°C° 0 mm 2 m/s 754 mmHg 92%
06:00 +24°C° 0.1 mm 2 m/s 754 mmHg 86%
07:00 +26°C° 0.1 mm 2 m/s 755 mmHg 80%
08:00 +28°C° 0.1 mm 2 m/s 755 mmHg 73%
09:00 +29°C° 0.2 mm 3 m/s 755 mmHg 68%
10:00 +30°C° 0.2 mm 3 m/s 755 mmHg 62%
11:00 +31°C° 0.2 mm 3 m/s 755 mmHg 56%
12:00 +33°C° 0 mm 3 m/s 755 mmHg 51%
13:00 +33°C° 0 mm 4 m/s 755 mmHg 47%
14:00 +34°C° 0 mm 4 m/s 755 mmHg 43%
15:00 +33°C° 0 mm 4 m/s 754 mmHg 44%
16:00 +33°C° 0 mm 4 m/s 754 mmHg 46%
17:00 +32°C° 0 mm 4 m/s 754 mmHg 47%
18:00 +28°C° 3.1 mm 3 m/s 754 mmHg 64%
19:00 +25°C° 3.1 mm 3 m/s 755 mmHg 81%
20:00 +20°C° 3.1 mm 2 m/s 755 mmHg 97%
21:00 +20°C° 0.7 mm 2 m/s 755 mmHg 97%
22:00 +20°C° 0.7 mm 3 m/s 755 mmHg 97%
23:00 +20°C° 0.7 mm 3 m/s 755 mmHg 97%

Amanhã, 24 Junho, Quinta-feira

Tempo Temperatura Precipitação Vento Pressão Humidade
00:00 +20°C° 0 mm 2 m/s 755 mmHg 98%
01:00 +20°C° 0 mm 2 m/s 756 mmHg 98%
02:00 +20°C° 0 mm 2 m/s 756 mmHg 98%
03:00 +19°C° 0 mm 2 m/s 756 mmHg 98%
04:00 +20°C° 0 mm 1 m/s 756 mmHg 97%
05:00 +20°C° 0 mm 1 m/s 756 mmHg 97%
06:00 +21°C° 0 mm 1 m/s 756 mmHg 90%
07:00 +22°C° 0 mm 1 m/s 757 mmHg 84%
08:00 +24°C° 0 mm 1 m/s 757 mmHg 77%
09:00 +24°C° 0.1 mm 2 m/s 757 mmHg 77%
10:00 +24°C° 0.1 mm 2 m/s 756 mmHg 77%
11:00 +24°C° 0.1 mm 2 m/s 756 mmHg 77%
12:00 +25°C° 0 mm 2 m/s 756 mmHg 72%
13:00 +26°C° 0 mm 2 m/s 756 mmHg 67%
14:00 +28°C° 0 mm 2 m/s 756 mmHg 62%
15:00 +27°C° 0.1 mm 2 m/s 756 mmHg 66%
16:00 +26°C° 0.1 mm 1 m/s 756 mmHg 69%
17:00 +26°C° 0.1 mm 1 m/s 756 mmHg 73%
18:00 +25°C° 0 mm 1 m/s 756 mmHg 77%
19:00 +24°C° 0 mm 1 m/s 755 mmHg 81%
20:00 +22°C° 0 mm 1 m/s 755 mmHg 86%
21:00 +22°C° 0 mm 1 m/s 755 mmHg 88%
22:00 +21°C° 0 mm 1 m/s 755 mmHg 90%
23:00 +19°C° 0 mm 2 m/s 755 mmHg 92%

Depois de amanhã, 25 Junho, Sexta-feira

Tempo Temperatura Precipitação Vento Pressão Humidade
00:00 +19°C° 0 mm 1 m/s 755 mmHg 92%
01:00 +19°C° 0 mm 1 m/s 755 mmHg 93%
02:00 +19°C° 0 mm 1 m/s 754 mmHg 93%
03:00 +19°C° 0 mm 1 m/s 754 mmHg 93%
04:00 +20°C° 0 mm 1 m/s 754 mmHg 92%
05:00 +20°C° 0 mm 1 m/s 754 mmHg 91%
06:00 +22°C° 0 mm 1 m/s 754 mmHg 85%
07:00 +23°C° 0 mm 1 m/s 754 mmHg 79%
08:00 +25°C° 0 mm 1 m/s 754 mmHg 74%
09:00 +26°C° 0 mm 2 m/s 754 mmHg 70%
10:00 +27°C° 0 mm 2 m/s 754 mmHg 65%
11:00 +28°C° 0 mm 2 m/s 754 mmHg 61%
12:00 +28°C° 0.2 mm 2 m/s 754 mmHg 60%
13:00 +28°C° 0.2 mm 2 m/s 754 mmHg 59%
14:00 +29°C° 0.2 mm 2 m/s 754 mmHg 58%
15:00 +28°C° 0 mm 2 m/s 753 mmHg 59%
16:00 +28°C° 0 mm 2 m/s 753 mmHg 61%
17:00 +27°C° 0 mm 2 m/s 752 mmHg 62%
18:00 +26°C° 0.1 mm 2 m/s 752 mmHg 68%
19:00 +25°C° 0.1 mm 2 m/s 752 mmHg 73%
20:00 +25°C° 0.1 mm 2 m/s 752 mmHg 78%
21:00 +23°C° 0.5 mm 2 m/s 752 mmHg 83%
22:00 +21°C° 0.5 mm 2 m/s 752 mmHg 88%
23:00 +19°C° 0.5 mm 2 m/s 752 mmHg 92%

26 Junho, Sábado

Tempo Temperatura Precipitação Vento Pressão Humidade
00:00 +19°C° 0.2 mm 2 m/s 752 mmHg 93%
01:00 +19°C° 0.2 mm 2 m/s 751 mmHg 93%
02:00 +19°C° 0.2 mm 2 m/s 751 mmHg 94%
03:00 +19°C° 0.1 mm 2 m/s 751 mmHg 94%
04:00 +20°C° 0.1 mm 1 m/s 751 mmHg 94%
05:00 +21°C° 0.1 mm 1 m/s 750 mmHg 93%
06:00 +22°C° 0.1 mm 1 m/s 750 mmHg 89%
07:00 +23°C° 0.1 mm 1 m/s 750 mmHg 85%
08:00 +24°C° 0.1 mm 1 m/s 750 mmHg 81%
09:00 +25°C° 0 mm 1 m/s 751 mmHg 74%
10:00 +27°C° 0 mm 1 m/s 751 mmHg 66%
11:00 +29°C° 0 mm 2 m/s 751 mmHg 59%
12:00 +29°C° 0.1 mm 2 m/s 751 mmHg 57%
13:00 +29°C° 0.1 mm 2 m/s 751 mmHg 56%
14:00 +30°C° 0.1 mm 2 m/s 751 mmHg 54%
15:00 +29°C° 0.6 mm 2 m/s 751 mmHg 62%
16:00 +27°C° 0.6 mm 2 m/s 751 mmHg 70%
17:00 +26°C° 0.6 mm 2 m/s 751 mmHg 78%
18:00 +25°C° 0.3 mm 2 m/s 751 mmHg 82%
19:00 +24°C° 0.3 mm 2 m/s 751 mmHg 86%
20:00 +22°C° 0.3 mm 3 m/s 751 mmHg 90%
21:00 +21°C° 0 mm 3 m/s 752 mmHg 91%
22:00 +20°C° 0 mm 3 m/s 752 mmHg 92%
23:00 +19°C° 0 mm 3 m/s 752 mmHg 93%

27 Junho, Domingo

Tempo Temperatura Precipitação Vento Pressão Humidade
00:00 +18°C° 0 mm 3 m/s 752 mmHg 94%
01:00 +17°C° 0 mm 3 m/s 753 mmHg 94%
02:00 +17°C° 0 mm 3 m/s 753 mmHg 95%
03:00 +17°C° 0 mm 3 m/s 753 mmHg 94%
04:00 +17°C° 0 mm 3 m/s 753 mmHg 93%
05:00 +16°C° 0 mm 3 m/s 753 mmHg 92%
06:00 +18°C° 0 mm 3 m/s 753 mmHg 85%
07:00 +19°C° 0 mm 3 m/s 753 mmHg 78%
08:00 +21°C° 0 mm 3 m/s 753 mmHg 71%
09:00 +21°C° 0 mm 3 m/s 753 mmHg 67%
10:00 +22°C° 0 mm 3 m/s 753 mmHg 64%
11:00 +24°C° 0 mm 3 m/s 753 mmHg 60%
12:00 +23°C° 0 mm 4 m/s 753 mmHg 61%
13:00 +23°C° 0 mm 4 m/s 754 mmHg 63%
14:00 +23°C° 0 mm 4 m/s 754 mmHg 64%
15:00 +23°C° 0 mm 4 m/s 754 mmHg 63%
16:00 +23°C° 0 mm 4 m/s 754 mmHg 62%
17:00 +23°C° 0 mm 4 m/s 753 mmHg 61%
18:00 +22°C° 0 mm 3 m/s 753 mmHg 66%
19:00 +21°C° 0 mm 3 m/s 753 mmHg 71%
20:00 +20°C° 0 mm 3 m/s 753 mmHg 75%
21:00 +19°C° 0 mm 3 m/s 754 mmHg 80%
22:00 +18°C° 0 mm 3 m/s 754 mmHg 85%
23:00 +16°C° 0 mm 2 m/s 754 mmHg 89%

28 Junho, Segunda-feira

Tempo Temperatura Precipitação Vento Pressão Humidade
00:00 +16°C° 0 mm 3 m/s 754 mmHg 91%
01:00 +14°C° 0 mm 3 m/s 754 mmHg 92%
02:00 +13°C° 0 mm 3 m/s 754 mmHg 93%
03:00 +14°C° 0 mm 3 m/s 754 mmHg 92%
04:00 +14°C° 0 mm 3 m/s 754 mmHg 90%
05:00 +14°C° 0 mm 4 m/s 754 mmHg 89%
06:00 +15°C° 0 mm 4 m/s 754 mmHg 82%
07:00 +18°C° 0 mm 4 m/s 754 mmHg 76%
08:00 +19°C° 0 mm 4 m/s 754 mmHg 69%
09:00 +20°C° 0 mm 4 m/s 754 mmHg 66%
10:00 +21°C° 0 mm 4 m/s 754 mmHg 63%
11:00 +22°C° 0 mm 4 m/s 754 mmHg 60%
12:00 +22°C° 0 mm 4 m/s 754 mmHg 59%
13:00 +22°C° 0 mm 4 m/s 754 mmHg 59%
14:00 +22°C° 0 mm 4 m/s 754 mmHg 58%
15:00 +22°C° 0 mm 3 m/s 754 mmHg 58%
16:00 +22°C° 0 mm 3 m/s 754 mmHg 58%
17:00 +24°C° 0 mm 3 m/s 754 mmHg 57%
18:00 +23°C° 0 mm 2 m/s 754 mmHg 62%
19:00 +21°C° 0 mm 2 m/s 754 mmHg 67%
20:00 +20°C° 0 mm 2 m/s 754 mmHg 72%
21:00 +19°C° 0 mm 3 m/s 754 mmHg 70%
22:00 +19°C° 0 mm 3 m/s 754 mmHg 68%
23:00 +18°C° 0 mm 4 m/s 754 mmHg 65%
Mostrar mais

Necessitamos do seu Consentimento

A Meteoprog e os seus Fornecedores de Serviços podem armazenar e aceder a dados pessoais como cookies, identificadores do dispositivo ou outras tecnologias semelhantes existentes no seu dispositivo e processar estes dados para personalizar conteúdos e anúncios, assim como funcionalidades nas redes sociais e análise de tráfego.

  • Armazenar e/ou aceder a informações no seu dispositivo

    Os cookies, identificadores do dispositivo ou outras informações podem ser armazenados ou acedidos no seu dispositivo, para os fins acima indicados.

  • Anúncios e conteúdos personalizados, medição de anúncios e conteúdos, dados sobre o público-alvo e desenvolvimento de produtos

    Os anúncios e os conteúdos podem ser personalizados com base num perfil. Podem ser adicionados dados adicionais para uma maior personalização dos anúncios e dos conteúdos. A eficácia dos anúncios e dos conteúdos pode ser medida. Podem ser obtidas informações sobre o público que visualizou os anúncios e os conteúdos. Estes dados podem ser usados para desenvolver ou melhorar sistemas, softwares ou a experiência do utilizador.

Ao clicar em "Eu concordo”, permitirá o uso de cookies, identificadores do dispositivo e web beacons mencionados ou outras tecnologias semelhantes. As configurações do navegador do seu dispositivo podem ser alteradas.

Para certos fins, podem ser invocados interesses legítimos ao invés de consentimento. Pode ler mais informação sobre este assunto na nossa Política de Privacidade e Cookies.